User: anonymous   Login
Location: Lesignano de� Bagni
(44.6500°N, 10.3000°E)
Time: 19:52:18
(UTC+00:00)
Language:

Cosmos 2184 Rocket - Orbit

View from above orbital plane
View from above orbital plane
View from above satellite
View from above satellite

Ground track
Ground track

The orbit data is extracted from the following two-line orbital elements,

1 21938U 92020B   21136.17371159  .00000006  00000-0 -99569-5 0  9993
2 21938  82.9325  19.5502 0029510 162.8038 313.2035 13.75286381459404
Epoch (UTC): 16 May 2021 04:10:08
Eccentricity: 0.0029510
inclination: 82.9325°
perigee height: 959 km
apogee height: 1002 km
right ascension of ascending node: 19.5502°
argument of perigee: 162.8038°
revolutions per day: 13.75286381
mean anomaly at epoch: 313.2035°
orbit number at epoch: 45940

The dashed part of the orbit path shows where the satellite is in the earth's shadow,  

DLR